owner,sensor,date,latitude,longitude,vertical_datum,sea_water_practical_salinity,qcFlag 
TABS,ioos:station:wmo:42051:1,2015-01-01T00:00:00Z,29.6350,-93.6417,2.0,27.9622,11111222 
TABS,ioos:station:wmo:42051:1,2015-01-01T00:30:00Z,29.6350,-93.6417,2.0,27.9339,11111222 
TABS,ioos:station:wmo:42051:1,2015-01-01T01:00:00Z,29.6350,-93.6417,2.0,27.9154,11111222 
TABS,ioos:station:wmo:42051:1,2015-01-01T01:30:00Z,29.6350,-93.6417,2.0,27.9163,11111222 
TABS,ioos:station:wmo:42051:1,2015-01-01T02:00:00Z,29.6350,-93.6417,2.0,27.9515,11111222 
TABS,ioos:station:wmo:42051:1,2015-01-01T02:30:00Z,29.6350,-93.6417,2.0,27.9313,11111222 
TABS,ioos:station:wmo:42051:1,2015-01-01T03:00:00Z,29.6350,-93.6417,2.0,27.8884,11111222 
TABS,ioos:station:wmo:42051:1,2015-01-01T03:30:00Z,29.6350,-93.6417,2.0,27.8824,11111222 
TABS,ioos:station:wmo:42051:1,2015-01-01T04:00:00Z,29.6350,-93.6417,2.0,27.8716,11111222 
TABS,ioos:station:wmo:42051:1,2015-01-01T04:30:00Z,29.6350,-93.6417,2.0,27.8895,11111222 
TABS,ioos:station:wmo:42051:1,2015-01-01T05:00:00Z,29.6350,-93.6417,2.0,27.9193,11111222 
TABS,ioos:station:wmo:42051:1,2015-01-01T05:30:00Z,29.6350,-93.6417,2.0,27.905,11111222 
TABS,ioos:station:wmo:42051:1,2015-01-01T06:00:00Z,29.6350,-93.6417,2.0,27.884,11111222 
TABS,ioos:station:wmo:42051:1,2015-01-01T06:30:00Z,29.6350,-93.6417,2.0,27.859,11111222 
TABS,ioos:station:wmo:42051:1,2015-01-01T07:00:00Z,29.6350,-93.6417,2.0,27.8458,11111222 
TABS,ioos:station:wmo:42051:1,2015-01-01T07:30:00Z,29.6350,-93.6417,2.0,27.8305,11111222 
TABS,ioos:station:wmo:42051:1,2015-01-01T08:00:00Z,29.6350,-93.6417,2.0,27.795,11111222 
TABS,ioos:station:wmo:42051:1,2015-01-01T08:30:00Z,29.6350,-93.6417,2.0,27.7837,11111222 
TABS,ioos:station:wmo:42051:1,2015-01-01T09:00:00Z,29.6350,-93.6417,2.0,27.7687,11111222 
TABS,ioos:station:wmo:42051:1,2015-01-01T09:30:00Z,29.6350,-93.6417,2.0,27.7587,11111222 
TABS,ioos:station:wmo:42051:1,2015-01-01T10:00:00Z,29.6350,-93.6417,2.0,27.7641,11111222 
TABS,ioos:station:wmo:42051:1,2015-01-01T10:30:00Z,29.6350,-93.6417,2.0,27.7724,11111222 
TABS,ioos:station:wmo:42051:1,2015-01-01T11:00:00Z,29.6350,-93.6417,2.0,27.7596,11111222 
TABS,ioos:station:wmo:42051:1,2015-01-01T11:30:00Z,29.6350,-93.6417,2.0,27.777,11111222 
TABS,ioos:station:wmo:42051:1,2015-01-01T12:00:00Z,29.6350,-93.6417,2.0,27.7894,11111222 
TABS,ioos:station:wmo:42051:1,2015-01-01T12:30:00Z,29.6350,-93.6417,2.0,27.8055,11111222 
TABS,ioos:station:wmo:42051:1,2015-01-01T13:00:00Z,29.6350,-93.6417,2.0,27.8266,11111222 
TABS,ioos:station:wmo:42051:1,2015-01-01T13:30:00Z,29.6350,-93.6417,2.0,27.87,11111222 
TABS,ioos:station:wmo:42051:1,2015-01-01T14:00:00Z,29.6350,-93.6417,2.0,27.9725,11111222 
TABS,ioos:station:wmo:42051:1,2015-01-01T14:30:00Z,29.6350,-93.6417,2.0,28.0119,11111222 
TABS,ioos:station:wmo:42051:1,2015-01-01T15:00:00Z,29.6350,-93.6417,2.0,28.015,11111222 
TABS,ioos:station:wmo:42051:1,2015-01-01T15:30:00Z,29.6350,-93.6417,2.0,27.9868,11111222 
TABS,ioos:station:wmo:42051:1,2015-01-01T16:00:00Z,29.6350,-93.6417,2.0,27.9875,11111222 
TABS,ioos:station:wmo:42051:1,2015-01-01T16:30:00Z,29.6350,-93.6417,2.0,28.0253,11111222 
TABS,ioos:station:wmo:42051:1,2015-01-01T17:00:00Z,29.6350,-93.6417,2.0,28.02,11111222 
TABS,ioos:station:wmo:42051:1,2015-01-01T17:30:00Z,29.6350,-93.6417,2.0,28.0122,11111222 
TABS,ioos:station:wmo:42051:1,2015-01-01T18:00:00Z,29.6350,-93.6417,2.0,28.0459,11111222 
TABS,ioos:station:wmo:42051:1,2015-01-01T18:30:00Z,29.6350,-93.6417,2.0,28.0745,11111222 
TABS,ioos:station:wmo:42051:1,2015-01-01T19:00:00Z,29.6350,-93.6417,2.0,28.1131,11111222 
TABS,ioos:station:wmo:42051:1,2015-01-01T19:30:00Z,29.6350,-93.6417,2.0,28.2,11111222 
TABS,ioos:station:wmo:42051:1,2015-01-01T20:00:00Z,29.6350,-93.6417,2.0,28.2384,11111222 
TABS,ioos:station:wmo:42051:1,2015-01-01T20:30:00Z,29.6350,-93.6417,2.0,28.2364,11111222 
TABS,ioos:station:wmo:42051:1,2015-01-01T21:00:00Z,29.6350,-93.6417,2.0,28.2053,11111222 
TABS,ioos:station:wmo:42051:1,2015-01-01T21:30:00Z,29.6350,-93.6417,2.0,28.1726,11111222 
TABS,ioos:station:wmo:42051:1,2015-01-01T22:00:00Z,29.6350,-93.6417,2.0,28.161,11111222 
TABS,ioos:station:wmo:42051:1,2015-01-01T22:30:00Z,29.6350,-93.6417,2.0,28.1453,11111222 
TABS,ioos:station:wmo:42051:1,2015-01-01T23:00:00Z,29.6350,-93.6417,2.0,28.1871,11111222 
TABS,ioos:station:wmo:42051:1,2015-01-01T23:30:00Z,29.6350,-93.6417,2.0,28.2575,11111222 
TABS,ioos:station:wmo:42051:1,2015-01-02T00:00:00Z,29.6350,-93.6417,2.0,28.3514,11111222 
TABS,ioos:station:wmo:42051:1,2015-01-02T00:30:00Z,29.6350,-93.6417,2.0,28.3487,11111222 
TABS,ioos:station:wmo:42051:1,2015-01-02T01:00:00Z,29.6350,-93.6417,2.0,28.3617,11111222 
TABS,ioos:station:wmo:42051:1,2015-01-02T01:30:00Z,29.6350,-93.6417,2.0,28.3673,11111222 
TABS,ioos:station:wmo:42051:1,2015-01-02T02:00:00Z,29.6350,-93.6417,2.0,28.3605,11111222 
TABS,ioos:station:wmo:42051:1,2015-01-02T02:30:00Z,29.6350,-93.6417,2.0,28.3759,11111222 
TABS,ioos:station:wmo:42051:1,2015-01-02T03:00:00Z,29.6350,-93.6417,2.0,28.394,11111222 
TABS,ioos:station:wmo:42051:1,2015-01-02T03:30:00Z,29.6350,-93.6417,2.0,28.3905,11111222 
TABS,ioos:station:wmo:42051:1,2015-01-02T04:00:00Z,29.6350,-93.6417,2.0,28.3642,11111222 
TABS,ioos:station:wmo:42051:1,2015-01-02T04:30:00Z,29.6350,-93.6417,2.0,28.3805,11111222 
TABS,ioos:station:wmo:42051:1,2015-01-02T05:00:00Z,29.6350,-93.6417,2.0,28.3941,11111222 
TABS,ioos:station:wmo:42051:1,2015-01-02T05:30:00Z,29.6350,-93.6417,2.0,28.3792,11111222 
TABS,ioos:station:wmo:42051:1,2015-01-02T06:00:00Z,29.6350,-93.6417,2.0,28.3909,11111222 
TABS,ioos:station:wmo:42051:1,2015-01-02T06:30:00Z,29.6350,-93.6417,2.0,28.4037,11111222 
TABS,ioos:station:wmo:42051:1,2015-01-02T07:00:00Z,29.6350,-93.6417,2.0,28.4344,11111222 
TABS,ioos:station:wmo:42051:1,2015-01-02T07:30:00Z,29.6350,-93.6417,2.0,28.4956,11111222 
TABS,ioos:station:wmo:42051:1,2015-01-02T08:00:00Z,29.6350,-93.6417,2.0,28.514,11111222 
TABS,ioos:station:wmo:42051:1,2015-01-02T08:30:00Z,29.6350,-93.6417,2.0,28.5085,11111222 
TABS,ioos:station:wmo:42051:1,2015-01-02T09:00:00Z,29.6350,-93.6417,2.0,28.4909,11111222 
TABS,ioos:station:wmo:42051:1,2015-01-02T09:30:00Z,29.6350,-93.6417,2.0,28.5704,11111222 
TABS,ioos:station:wmo:42051:1,2015-01-02T10:00:00Z,29.6350,-93.6417,2.0,28.5397,11111222 
TABS,ioos:station:wmo:42051:1,2015-01-02T10:30:00Z,29.6350,-93.6417,2.0,28.5213,11111222 
TABS,ioos:station:wmo:42051:1,2015-01-02T11:00:00Z,29.6350,-93.6417,2.0,28.5089,11111222 
TABS,ioos:station:wmo:42051:1,2015-01-02T11:30:00Z,29.6350,-93.6417,2.0,28.5543,11111222 
TABS,ioos:station:wmo:42051:1,2015-01-02T12:00:00Z,29.6350,-93.6417,2.0,28.555,11111222 
TABS,ioos:station:wmo:42051:1,2015-01-02T12:30:00Z,29.6350,-93.6417,2.0,28.5804,11111222 
TABS,ioos:station:wmo:42051:1,2015-01-02T13:00:00Z,29.6350,-93.6417,2.0,28.6083,11111222 
TABS,ioos:station:wmo:42051:1,2015-01-02T13:30:00Z,29.6350,-93.6417,2.0,28.6891,11111222 
TABS,ioos:station:wmo:42051:1,2015-01-02T14:00:00Z,29.6350,-93.6417,2.0,28.7426,11111222 
TABS,ioos:station:wmo:42051:1,2015-01-02T14:30:00Z,29.6350,-93.6417,2.0,28.7195,11111222 
TABS,ioos:station:wmo:42051:1,2015-01-02T15:00:00Z,29.6350,-93.6417,2.0,28.7884,11111222 
TABS,ioos:station:wmo:42051:1,2015-01-02T15:30:00Z,29.6350,-93.6417,2.0,28.8318,11111222 
TABS,ioos:station:wmo:42051:1,2015-01-02T16:00:00Z,29.6350,-93.6417,2.0,28.8858,11111222 
TABS,ioos:station:wmo:42051:1,2015-01-02T16:30:00Z,29.6350,-93.6417,2.0,28.9205,11111222 
TABS,ioos:station:wmo:42051:1,2015-01-02T17:00:00Z,29.6350,-93.6417,2.0,28.9601,11111222 
TABS,ioos:station:wmo:42051:1,2015-01-02T17:30:00Z,29.6350,-93.6417,2.0,28.9637,11111222 
TABS,ioos:station:wmo:42051:1,2015-01-02T18:00:00Z,29.6350,-93.6417,2.0,28.9537,11111222 
TABS,ioos:station:wmo:42051:1,2015-01-02T18:30:00Z,29.6350,-93.6417,2.0,28.9515,11111222 
TABS,ioos:station:wmo:42051:1,2015-01-02T19:00:00Z,29.6350,-93.6417,2.0,28.938,11111222 
TABS,ioos:station:wmo:42051:1,2015-01-02T19:30:00Z,29.6350,-93.6417,2.0,28.9451,11111222 
TABS,ioos:station:wmo:42051:1,2015-01-02T20:00:00Z,29.6350,-93.6417,2.0,28.201,11111222 
TABS,ioos:station:wmo:42051:1,2015-01-02T20:30:00Z,29.6350,-93.6417,2.0,27.8497,11111222 
TABS,ioos:station:wmo:42051:1,2015-01-02T21:00:00Z,29.6350,-93.6417,2.0,27.8488,11111222 
TABS,ioos:station:wmo:42051:1,2015-01-02T21:30:00Z,29.6350,-93.6417,2.0,27.8537,11111222 
TABS,ioos:station:wmo:42051:1,2015-01-02T22:00:00Z,29.6350,-93.6417,2.0,27.7514,11111222 
TABS,ioos:station:wmo:42051:1,2015-01-02T22:30:00Z,29.6350,-93.6417,2.0,27.743,11111222 
TABS,ioos:station:wmo:42051:1,2015-01-02T23:00:00Z,29.6350,-93.6417,2.0,27.7201,11111222 
TABS,ioos:station:wmo:42051:1,2015-01-02T23:30:00Z,29.6350,-93.6417,2.0,27.7435,11111222 
TABS,ioos:station:wmo:42051:1,2015-01-03T00:00:00Z,29.6350,-93.6417,2.0,27.6712,11111222 
TABS,ioos:station:wmo:42051:1,2015-01-03T00:30:00Z,29.6350,-93.6417,2.0,27.685,11111222 
TABS,ioos:station:wmo:42051:1,2015-01-03T01:00:00Z,29.6350,-93.6417,2.0,27.6871,11111222 
TABS,ioos:station:wmo:42051:1,2015-01-03T01:30:00Z,29.6350,-93.6417,2.0,27.7065,11111222 
TABS,ioos:station:wmo:42051:1,2015-01-03T02:00:00Z,29.6350,-93.6417,2.0,27.749,11111222 
TABS,ioos:station:wmo:42051:1,2015-01-03T02:30:00Z,29.6350,-93.6417,2.0,27.7478,11111222 
TABS,ioos:station:wmo:42051:1,2015-01-03T03:00:00Z,29.6350,-93.6417,2.0,27.6698,11111222 
TABS,ioos:station:wmo:42051:1,2015-01-03T03:30:00Z,29.6350,-93.6417,2.0,27.7017,11111222 
TABS,ioos:station:wmo:42051:1,2015-01-03T04:00:00Z,29.6350,-93.6417,2.0,27.7093,11111222 
TABS,ioos:station:wmo:42051:1,2015-01-03T04:30:00Z,29.6350,-93.6417,2.0,27.7569,11111222 
TABS,ioos:station:wmo:42051:1,2015-01-03T05:00:00Z,29.6350,-93.6417,2.0,27.8322,11111222 
TABS,ioos:station:wmo:42051:1,2015-01-03T05:30:00Z,29.6350,-93.6417,2.0,27.853,11111222 
TABS,ioos:station:wmo:42051:1,2015-01-03T06:00:00Z,29.6350,-93.6417,2.0,27.8995,11111222 
TABS,ioos:station:wmo:42051:1,2015-01-03T06:30:00Z,29.6350,-93.6417,2.0,27.925,11111222 
TABS,ioos:station:wmo:42051:1,2015-01-03T07:00:00Z,29.6350,-93.6417,2.0,27.9713,11111222 
TABS,ioos:station:wmo:42051:1,2015-01-03T07:30:00Z,29.6350,-93.6417,2.0,27.9664,11111222 
TABS,ioos:station:wmo:42051:1,2015-01-03T08:00:00Z,29.6350,-93.6417,2.0,27.9774,11111222 
TABS,ioos:station:wmo:42051:1,2015-01-03T08:30:00Z,29.6350,-93.6417,2.0,27.8875,11111222 
TABS,ioos:station:wmo:42051:1,2015-01-03T09:00:00Z,29.6350,-93.6417,2.0,27.8991,11111222 
TABS,ioos:station:wmo:42051:1,2015-01-03T09:30:00Z,29.6350,-93.6417,2.0,27.9004,11111222 
TABS,ioos:station:wmo:42051:1,2015-01-03T10:00:00Z,29.6350,-93.6417,2.0,27.931,11111222 
TABS,ioos:station:wmo:42051:1,2015-01-03T10:30:00Z,29.6350,-93.6417,2.0,27.9386,11111222 
TABS,ioos:station:wmo:42051:1,2015-01-03T11:00:00Z,29.6350,-93.6417,2.0,27.9328,11111222 
TABS,ioos:station:wmo:42051:1,2015-01-03T11:30:00Z,29.6350,-93.6417,2.0,27.9691,11111222 
TABS,ioos:station:wmo:42051:1,2015-01-03T12:00:00Z,29.6350,-93.6417,2.0,27.949,11111222 
TABS,ioos:station:wmo:42051:1,2015-01-03T12:30:00Z,29.6350,-93.6417,2.0,27.9631,11111222 
TABS,ioos:station:wmo:42051:1,2015-01-03T13:00:00Z,29.6350,-93.6417,2.0,27.969,11111222 
TABS,ioos:station:wmo:42051:1,2015-01-03T13:30:00Z,29.6350,-93.6417,2.0,27.9755,11111222 
TABS,ioos:station:wmo:42051:1,2015-01-03T14:00:00Z,29.6350,-93.6417,2.0,27.9663,11111222 
TABS,ioos:station:wmo:42051:1,2015-01-03T14:30:00Z,29.6350,-93.6417,2.0,27.9481,11111222 
TABS,ioos:station:wmo:42051:1,2015-01-03T15:00:00Z,29.6350,-93.6417,2.0,27.9705,11111222 
TABS,ioos:station:wmo:42051:1,2015-01-03T15:30:00Z,29.6350,-93.6417,2.0,27.9616,11111222 
TABS,ioos:station:wmo:42051:1,2015-01-03T16:00:00Z,29.6350,-93.6417,2.0,27.9472,11111222 
TABS,ioos:station:wmo:42051:1,2015-01-03T16:30:00Z,29.6350,-93.6417,2.0,27.9401,11111222 
TABS,ioos:station:wmo:42051:1,2015-01-03T17:00:00Z,29.6350,-93.6417,2.0,27.922,11111222 
TABS,ioos:station:wmo:42051:1,2015-01-03T17:30:00Z,29.6350,-93.6417,2.0,27.9108,11111222 
TABS,ioos:station:wmo:42051:1,2015-01-03T18:00:00Z,29.6350,-93.6417,2.0,27.9044,11111222 
TABS,ioos:station:wmo:42051:1,2015-01-03T18:30:00Z,29.6350,-93.6417,2.0,27.9315,11111222 
TABS,ioos:station:wmo:42051:1,2015-01-03T19:00:00Z,29.6350,-93.6417,2.0,27.8851,11111222 
TABS,ioos:station:wmo:42051:1,2015-01-03T19:30:00Z,29.6350,-93.6417,2.0,27.8426,11111222 
TABS,ioos:station:wmo:42051:1,2015-01-03T20:00:00Z,29.6350,-93.6417,2.0,27.4047,11111222 
TABS,ioos:station:wmo:42051:1,2015-01-03T20:30:00Z,29.6350,-93.6417,2.0,27.4456,11111222 
TABS,ioos:station:wmo:42051:1,2015-01-03T21:00:00Z,29.6350,-93.6417,2.0,27.4462,11111222 
TABS,ioos:station:wmo:42051:1,2015-01-03T21:30:00Z,29.6350,-93.6417,2.0,27.4271,11111222 
TABS,ioos:station:wmo:42051:1,2015-01-03T22:00:00Z,29.6350,-93.6417,2.0,27.4156,11111222 
TABS,ioos:station:wmo:42051:1,2015-01-03T22:30:00Z,29.6350,-93.6417,2.0,27.3786,11111222 
TABS,ioos:station:wmo:42051:1,2015-01-03T23:00:00Z,29.6350,-93.6417,2.0,27.3714,11111222 
TABS,ioos:station:wmo:42051:1,2015-01-03T23:30:00Z,29.6350,-93.6417,2.0,27.4076,11111222 
TABS,ioos:station:wmo:42051:1,2015-01-04T00:00:00Z,29.6350,-93.6417,2.0,27.3742,11111222 
TABS,ioos:station:wmo:42051:1,2015-01-04T00:30:00Z,29.6350,-93.6417,2.0,27.3465,11111222 
TABS,ioos:station:wmo:42051:1,2015-01-04T01:00:00Z,29.6350,-93.6417,2.0,27.3378,11111222 
TABS,ioos:station:wmo:42051:1,2015-01-04T01:30:00Z,29.6350,-93.6417,2.0,27.2759,11111222 
TABS,ioos:station:wmo:42051:1,2015-01-04T02:00:00Z,29.6350,-93.6417,2.0,27.2967,11111222 
TABS,ioos:station:wmo:42051:1,2015-01-04T02:30:00Z,29.6350,-93.6417,2.0,27.2656,11111222 
TABS,ioos:station:wmo:42051:1,2015-01-04T03:00:00Z,29.6350,-93.6417,2.0,27.2746,11111222 
TABS,ioos:station:wmo:42051:1,2015-01-04T03:30:00Z,29.6350,-93.6417,2.0,27.1784,11111222 
TABS,ioos:station:wmo:42051:1,2015-01-04T04:00:00Z,29.6350,-93.6417,2.0,27.1981,11111222 
TABS,ioos:station:wmo:42051:1,2015-01-04T04:30:00Z,29.6350,-93.6417,2.0,27.1698,11111222 
TABS,ioos:station:wmo:42051:1,2015-01-04T05:00:00Z,29.6350,-93.6417,2.0,27.1212,11111222 
TABS,ioos:station:wmo:42051:1,2015-01-04T05:30:00Z,29.6350,-93.6417,2.0,27.1482,11111222 
TABS,ioos:station:wmo:42051:1,2015-01-04T06:00:00Z,29.6350,-93.6417,2.0,27.0734,11111222 
TABS,ioos:station:wmo:42051:1,2015-01-04T06:30:00Z,29.6350,-93.6417,2.0,27.0556,11111222 
TABS,ioos:station:wmo:42051:1,2015-01-04T07:00:00Z,29.6350,-93.6417,2.0,27.0753,11111222 
TABS,ioos:station:wmo:42051:1,2015-01-04T07:30:00Z,29.6350,-93.6417,2.0,27.1348,11111222 
TABS,ioos:station:wmo:42051:1,2015-01-04T08:00:00Z,29.6350,-93.6417,2.0,27.1135,11111222 
TABS,ioos:station:wmo:42051:1,2015-01-04T08:30:00Z,29.6350,-93.6417,2.0,27.132,11111222 
TABS,ioos:station:wmo:42051:1,2015-01-04T09:00:00Z,29.6350,-93.6417,2.0,27.0905,11111222 
TABS,ioos:station:wmo:42051:1,2015-01-04T09:30:00Z,29.6350,-93.6417,2.0,27.079,11111222 
TABS,ioos:station:wmo:42051:1,2015-01-04T10:00:00Z,29.6350,-93.6417,2.0,27.0747,11111222 
TABS,ioos:station:wmo:42051:1,2015-01-04T10:30:00Z,29.6350,-93.6417,2.0,27.0826,11111222 
TABS,ioos:station:wmo:42051:1,2015-01-04T11:00:00Z,29.6350,-93.6417,2.0,27.0775,11111222 
TABS,ioos:station:wmo:42051:1,2015-01-04T11:30:00Z,29.6350,-93.6417,2.0,27.1123,11111222 
TABS,ioos:station:wmo:42051:1,2015-01-04T12:00:00Z,29.6350,-93.6417,2.0,27.1465,11111222 
TABS,ioos:station:wmo:42051:1,2015-01-04T12:30:00Z,29.6350,-93.6417,2.0,27.1455,11111222 
TABS,ioos:station:wmo:42051:1,2015-01-04T13:00:00Z,29.6350,-93.6417,2.0,27.1434,11111222 
TABS,ioos:station:wmo:42051:1,2015-01-04T13:30:00Z,29.6350,-93.6417,2.0,27.1709,11111222 
TABS,ioos:station:wmo:42051:1,2015-01-04T14:00:00Z,29.6350,-93.6417,2.0,27.1892,11111222 
TABS,ioos:station:wmo:42051:1,2015-01-04T14:30:00Z,29.6350,-93.6417,2.0,27.2255,11111222 
TABS,ioos:station:wmo:42051:1,2015-01-04T15:00:00Z,29.6350,-93.6417,2.0,27.2812,11111222 
TABS,ioos:station:wmo:42051:1,2015-01-04T15:30:00Z,29.6350,-93.6417,2.0,27.3117,11111222 
TABS,ioos:station:wmo:42051:1,2015-01-04T16:00:00Z,29.6350,-93.6417,2.0,27.3548,11111222 
TABS,ioos:station:wmo:42051:1,2015-01-04T16:30:00Z,29.6350,-93.6417,2.0,27.406,11111222 
TABS,ioos:station:wmo:42051:1,2015-01-04T17:00:00Z,29.6350,-93.6417,2.0,27.4277,11111222 
TABS,ioos:station:wmo:42051:1,2015-01-04T17:30:00Z,29.6350,-93.6417,2.0,27.4517,11111222 
TABS,ioos:station:wmo:42051:1,2015-01-04T18:00:00Z,29.6350,-93.6417,2.0,27.4571,11111222 
TABS,ioos:station:wmo:42051:1,2015-01-04T18:30:00Z,29.6350,-93.6417,2.0,27.4634,11111222 
TABS,ioos:station:wmo:42051:1,2015-01-04T19:00:00Z,29.6350,-93.6417,2.0,27.4714,11111222 
TABS,ioos:station:wmo:42051:1,2015-01-04T19:30:00Z,29.6350,-93.6417,2.0,27.4695,11111222 
TABS,ioos:station:wmo:42051:1,2015-01-04T20:00:00Z,29.6350,-93.6417,2.0,27.4729,11111222 
TABS,ioos:station:wmo:42051:1,2015-01-04T20:30:00Z,29.6350,-93.6417,2.0,27.4846,11111222 
TABS,ioos:station:wmo:42051:1,2015-01-04T21:00:00Z,29.6350,-93.6417,2.0,27.475,11111222 
TABS,ioos:station:wmo:42051:1,2015-01-04T21:30:00Z,29.6350,-93.6417,2.0,27.4796,11111222 
TABS,ioos:station:wmo:42051:1,2015-01-04T22:00:00Z,29.6350,-93.6417,2.0,27.4839,11111222 
TABS,ioos:station:wmo:42051:1,2015-01-04T22:30:00Z,29.6350,-93.6417,2.0,27.481,11111222 
TABS,ioos:station:wmo:42051:1,2015-01-04T23:00:00Z,29.6350,-93.6417,2.0,27.4736,11111222 
TABS,ioos:station:wmo:42051:1,2015-01-04T23:30:00Z,29.6350,-93.6417,2.0,27.4647,11111222 
TABS,ioos:station:wmo:42051:1,2015-01-05T00:00:00Z,29.6350,-93.6417,2.0,27.4559,11111222 
TABS,ioos:station:wmo:42051:1,2015-01-05T00:30:00Z,29.6350,-93.6417,2.0,27.4324,11111222 
TABS,ioos:station:wmo:42051:1,2015-01-05T01:00:00Z,29.6350,-93.6417,2.0,27.4182,11111222 
TABS,ioos:station:wmo:42051:1,2015-01-05T01:30:00Z,29.6350,-93.6417,2.0,27.4155,11111222 
TABS,ioos:station:wmo:42051:1,2015-01-05T02:00:00Z,29.6350,-93.6417,2.0,27.4088,11111222 
TABS,ioos:station:wmo:42051:1,2015-01-05T02:30:00Z,29.6350,-93.6417,2.0,27.401,11111222 
TABS,ioos:station:wmo:42051:1,2015-01-05T03:00:00Z,29.6350,-93.6417,2.0,27.3966,11111222 
TABS,ioos:station:wmo:42051:1,2015-01-05T03:30:00Z,29.6350,-93.6417,2.0,27.409,11111222 
TABS,ioos:station:wmo:42051:1,2015-01-05T04:00:00Z,29.6350,-93.6417,2.0,27.4598,11111222 
TABS,ioos:station:wmo:42051:1,2015-01-05T04:30:00Z,29.6350,-93.6417,2.0,27.4575,11111222 
TABS,ioos:station:wmo:42051:1,2015-01-05T05:00:00Z,29.6350,-93.6417,2.0,27.4659,11111222 
TABS,ioos:station:wmo:42051:1,2015-01-05T05:30:00Z,29.6350,-93.6417,2.0,27.4739,11111222 
TABS,ioos:station:wmo:42051:1,2015-01-05T06:00:00Z,29.6350,-93.6417,2.0,27.4858,11111222 
TABS,ioos:station:wmo:42051:1,2015-01-05T06:30:00Z,29.6350,-93.6417,2.0,27.4922,11111222 
TABS,ioos:station:wmo:42051:1,2015-01-05T07:00:00Z,29.6350,-93.6417,2.0,27.4891,11111222 
TABS,ioos:station:wmo:42051:1,2015-01-05T07:30:00Z,29.6350,-93.6417,2.0,27.4917,11111222 
TABS,ioos:station:wmo:42051:1,2015-01-05T08:00:00Z,29.6350,-93.6417,2.0,27.4887,11111222 
TABS,ioos:station:wmo:42051:1,2015-01-05T08:30:00Z,29.6350,-93.6417,2.0,27.4956,11111222 
TABS,ioos:station:wmo:42051:1,2015-01-05T09:00:00Z,29.6350,-93.6417,2.0,27.4924,11111222 
TABS,ioos:station:wmo:42051:1,2015-01-05T09:30:00Z,29.6350,-93.6417,2.0,27.4805,11111222 
TABS,ioos:station:wmo:42051:1,2015-01-05T10:00:00Z,29.6350,-93.6417,2.0,27.4648,11111222 
TABS,ioos:station:wmo:42051:1,2015-01-05T10:30:00Z,29.6350,-93.6417,2.0,27.4455,11111222 
TABS,ioos:station:wmo:42051:1,2015-01-05T11:00:00Z,29.6350,-93.6417,2.0,27.4269,11111222 
TABS,ioos:station:wmo:42051:1,2015-01-05T11:30:00Z,29.6350,-93.6417,2.0,27.4132,11111222 
TABS,ioos:station:wmo:42051:1,2015-01-05T12:00:00Z,29.6350,-93.6417,2.0,27.4058,11111222 
TABS,ioos:station:wmo:42051:1,2015-01-05T12:30:00Z,29.6350,-93.6417,2.0,27.4017,11111222 
TABS,ioos:station:wmo:42051:1,2015-01-05T13:00:00Z,29.6350,-93.6417,2.0,27.3986,11111222 
TABS,ioos:station:wmo:42051:1,2015-01-05T13:30:00Z,29.6350,-93.6417,2.0,27.4008,11111222 
TABS,ioos:station:wmo:42051:1,2015-01-05T14:00:00Z,29.6350,-93.6417,2.0,27.405,11111222 
TABS,ioos:station:wmo:42051:1,2015-01-05T14:30:00Z,29.6350,-93.6417,2.0,27.4019,11111222 
TABS,ioos:station:wmo:42051:1,2015-01-05T15:00:00Z,29.6350,-93.6417,2.0,27.41,11111222 
TABS,ioos:station:wmo:42051:1,2015-01-05T15:30:00Z,29.6350,-93.6417,2.0,27.4061,11111222 
TABS,ioos:station:wmo:42051:1,2015-01-05T16:00:00Z,29.6350,-93.6417,2.0,27.4043,11111222 
TABS,ioos:station:wmo:42051:1,2015-01-05T16:30:00Z,29.6350,-93.6417,2.0,27.4015,11111222 
TABS,ioos:station:wmo:42051:1,2015-01-05T17:00:00Z,29.6350,-93.6417,2.0,27.4121,11111222 
TABS,ioos:station:wmo:42051:1,2015-01-05T17:30:00Z,29.6350,-93.6417,2.0,27.4198,11111222 
TABS,ioos:station:wmo:42051:1,2015-01-05T18:00:00Z,29.6350,-93.6417,2.0,27.4049,11111222 
TABS,ioos:station:wmo:42051:1,2015-01-05T18:30:00Z,29.6350,-93.6417,2.0,27.4012,11111222 
TABS,ioos:station:wmo:42051:1,2015-01-05T19:00:00Z,29.6350,-93.6417,2.0,27.3949,11111222 
TABS,ioos:station:wmo:42051:1,2015-01-05T19:30:00Z,29.6350,-93.6417,2.0,27.3901,11111222 
TABS,ioos:station:wmo:42051:1,2015-01-05T20:00:00Z,29.6350,-93.6417,2.0,27.4025,11111222 
TABS,ioos:station:wmo:42051:1,2015-01-05T20:30:00Z,29.6350,-93.6417,2.0,27.4362,11111222 
TABS,ioos:station:wmo:42051:1,2015-01-05T21:00:00Z,29.6350,-93.6417,2.0,27.4211,11111222 
TABS,ioos:station:wmo:42051:1,2015-01-05T21:30:00Z,29.6350,-93.6417,2.0,27.416,11111222 
TABS,ioos:station:wmo:42051:1,2015-01-05T22:00:00Z,29.6350,-93.6417,2.0,27.4109,11111222 
TABS,ioos:station:wmo:42051:1,2015-01-05T22:30:00Z,29.6350,-93.6417,2.0,27.4279,11111222 
TABS,ioos:station:wmo:42051:1,2015-01-05T23:00:00Z,29.6350,-93.6417,2.0,27.4031,11111222 
TABS,ioos:station:wmo:42051:1,2015-01-05T23:30:00Z,29.6350,-93.6417,2.0,27.1072,11111222 
TABS,ioos:station:wmo:42051:1,2015-01-06T00:00:00Z,29.6350,-93.6417,2.0,26.969,11111222 
TABS,ioos:station:wmo:42051:1,2015-01-06T00:30:00Z,29.6350,-93.6417,2.0,26.9524,11111222 
TABS,ioos:station:wmo:42051:1,2015-01-06T01:00:00Z,29.6350,-93.6417,2.0,26.9238,11111222 
TABS,ioos:station:wmo:42051:1,2015-01-06T01:30:00Z,29.6350,-93.6417,2.0,26.9342,11111222 
TABS,ioos:station:wmo:42051:1,2015-01-06T02:00:00Z,29.6350,-93.6417,2.0,26.9058,11111222 
TABS,ioos:station:wmo:42051:1,2015-01-06T02:30:00Z,29.6350,-93.6417,2.0,26.796,11111222 
TABS,ioos:station:wmo:42051:1,2015-01-06T03:00:00Z,29.6350,-93.6417,2.0,26.7496,11111222 
TABS,ioos:station:wmo:42051:1,2015-01-06T03:30:00Z,29.6350,-93.6417,2.0,26.7493,11111222 
TABS,ioos:station:wmo:42051:1,2015-01-06T04:00:00Z,29.6350,-93.6417,2.0,26.7144,11111222 
TABS,ioos:station:wmo:42051:1,2015-01-06T04:30:00Z,29.6350,-93.6417,2.0,26.7304,11111222 
TABS,ioos:station:wmo:42051:1,2015-01-06T05:00:00Z,29.6350,-93.6417,2.0,26.7537,11111222 
TABS,ioos:station:wmo:42051:1,2015-01-06T05:30:00Z,29.6350,-93.6417,2.0,26.7759,11111222 
TABS,ioos:station:wmo:42051:1,2015-01-06T06:00:00Z,29.6350,-93.6417,2.0,26.8019,11111222 
TABS,ioos:station:wmo:42051:1,2015-01-06T06:30:00Z,29.6350,-93.6417,2.0,26.7118,11111222 
TABS,ioos:station:wmo:42051:1,2015-01-06T07:00:00Z,29.6350,-93.6417,2.0,26.7215,11111222 
TABS,ioos:station:wmo:42051:1,2015-01-06T07:30:00Z,29.6350,-93.6417,2.0,26.7214,11111222 
TABS,ioos:station:wmo:42051:1,2015-01-06T08:00:00Z,29.6350,-93.6417,2.0,26.745,11111222 
TABS,ioos:station:wmo:42051:1,2015-01-06T08:30:00Z,29.6350,-93.6417,2.0,26.7398,11111222 
TABS,ioos:station:wmo:42051:1,2015-01-06T09:00:00Z,29.6350,-93.6417,2.0,26.7636,11111222 
TABS,ioos:station:wmo:42051:1,2015-01-06T09:30:00Z,29.6350,-93.6417,2.0,26.7594,11111222 
TABS,ioos:station:wmo:42051:1,2015-01-06T10:00:00Z,29.6350,-93.6417,2.0,26.7617,11111222 
TABS,ioos:station:wmo:42051:1,2015-01-06T10:30:00Z,29.6350,-93.6417,2.0,26.7493,11111222 
TABS,ioos:station:wmo:42051:1,2015-01-06T11:00:00Z,29.6350,-93.6417,2.0,26.7457,11111222 
TABS,ioos:station:wmo:42051:1,2015-01-06T11:30:00Z,29.6350,-93.6417,2.0,26.7048,11111222 
TABS,ioos:station:wmo:42051:1,2015-01-06T12:00:00Z,29.6350,-93.6417,2.0,26.7328,11111222 
TABS,ioos:station:wmo:42051:1,2015-01-06T12:30:00Z,29.6350,-93.6417,2.0,26.7823,11111222 